Bergman, AR

4:03 PM CDT on September 24, 2016 (GMT -0500)
Boone County

Weather History for KHRO - March, 2012

Change the Weather History Date:

Tuesday, March 20, 2012

  Actual Average Record
Temperature  
Mean Temperature 63 °F 50 °F  
Max Temperature 69 °F 61 °F 90 °F (1907)
Min Temperature 56 °F 39 °F 9 °F (1914)
Degree Days  
Heating Degree Days 2 15  
Month to date heating degree days 152 360  
Since 1 July heating degree days 2878 3532  
Cooling Degree Days 0 0  
Month to date cooling degree days 32 0  
Year to date cooling degree days 32 0  
Growing Degree Days 12 (Base 50)    
Moisture  
Dew Point 56 °F    
Average Humidity 84    
Maximum Humidity 100    
Minimum Humidity 68    
Precipitation  
Precipitation 1.59 in 0.13 in 2.15 in (1955)
Month to date precipitation 3.83 2.34  
Year to date precipitation 9.23 7.54  
Snow  
Snow 0.00 in 0.10 in 1.00 in (1974)
Month to date snowfall T 2.0  
Since 1 July snowfall 2.1 11.2  
Snow Depth 0.00 in    
Sea Level Pressure  
Sea Level Pressure 29.83 in    
Wind  
Wind Speed 6 mph (SE)    
Max Wind Speed 32 mph    
Max Gust Speed 41 mph    
Visibility 6 miles    
Events Rain , Thunderstorm    
T = Trace of Precipitation, MM = Missing Value Source: NWS Daily Summary

Daily Weather History Graph

Daily Weather History Graph

Search for Another Location

Airport or City:

Trip Planner

Search our weather history database for the weather conditions in past years. The results will help you decide how hot, cold, wet, or windy it might be!

Date:

Astronomy

Mar. 20, 2012 Rise Set
Actual Time 7:15 AM CDT 7:24 PM CDT
Civil Twilight 6:49 AM CDT 7:50 PM CDT
Nautical Twilight 6:19 AM CDT 8:20 PM CDT
Astronomical Twilight 5:49 AM CDT 8:50 PM CDT
Moon 5:55 AM CDT (3/20) 5:55 PM CDT (3/20)
Length of Visible Light 13h 00m
Length of Day
12h 09m
Waning Crescent, 4% of the Moon is Illuminated
Mar 20
Waning Crescent
Mar 22
New
Mar 30
First Quarter
Apr 6
Full
Apr 13
Last Quarter

Hourly Weather History & Observations

Time (CDT) Temp. Dew Point Humidity Pressure Visibility Wind Dir Wind Speed Gust Speed Precip Events Conditions
12:18 AM 62.6 °F 51.8 °F 68% 29.86 in 10.0 mi WNW 12.7 mph 19.6 mph N/A   Overcast
12:53 AM 57.9 °F 55.0 °F 90% 29.84 in 10.0 mi North 4.6 mph - 0.00 in Rain Light Rain
1:53 AM 57.0 °F 55.9 °F 96% 29.82 in 10.0 mi NNE 4.6 mph - 0.00 in   Overcast
2:48 AM 57.2 °F 55.4 °F 94% 29.85 in 9.0 mi WNW 8.1 mph - 0.02 in Rain Light Rain
2:53 AM 57.0 °F 55.0 °F 93% 29.83 in 6.0 mi Variable 3.5 mph - 0.04 in Rain Light Rain
3:27 AM 57.2 °F 55.4 °F 94% 29.82 in 10.0 mi North 8.1 mph - 0.00 in Rain , Thunderstorm Light Rain
3:48 AM 55.4 °F 55.4 °F 100% 29.82 in 2.5 mi NNE 10.4 mph - 0.09 in Rain Rain
3:53 AM 55.9 °F 55.0 °F 97% 29.80 in 6.0 mi North 6.9 mph - 0.09 in Rain Light Rain
4:53 AM 55.9 °F 55.0 °F 97% 29.79 in 4.0 mi Calm Calm - 0.04 in Rain Heavy Rain
5:12 AM 55.4 °F 55.4 °F 100% 29.82 in 10.0 mi North 6.9 mph - 0.01 in   Overcast
5:36 AM 55.4 °F 55.4 °F 100% 29.82 in 10.0 mi North 5.8 mph - 0.01 in   Overcast
5:53 AM 55.9 °F 55.0 °F 97% 29.79 in 10.0 mi North 10.4 mph - 0.01 in   Overcast
6:53 AM 55.9 °F 55.0 °F 97% 29.79 in 9.0 mi Calm Calm - 0.00 in Rain Light Rain
7:38 AM 55.4 °F 55.4 °F 100% 29.82 in 9.0 mi Calm Calm - 0.00 in   Overcast
7:50 AM 55.4 °F 55.4 °F 100% 29.82 in 9.0 mi Calm Calm - 0.00 in   Mostly Cloudy
7:53 AM 57.0 °F 55.9 °F 96% 29.79 in 9.0 mi Calm Calm - 0.00 in   Overcast
8:53 AM 60.1 °F 57.0 °F 90% 29.77 in 10.0 mi SE 8.1 mph - N/A   Mostly Cloudy
9:53 AM 66.9 °F 57.0 °F 70% 29.75 in 10.0 mi SSE 21.9 mph 31.1 mph N/A   Overcast
10:53 AM 68.0 °F 57.0 °F 68% 29.76 in 10.0 mi SSE 21.9 mph 33.4 mph N/A   Overcast
11:53 AM 59.0 °F 55.0 °F 87% 29.80 in 4.0 mi WSW 11.5 mph 27.6 mph 0.02 in Rain Light Rain
11:55 AM 57.2 °F 55.4 °F 94% 29.83 in 2.5 mi WSW 16.1 mph 27.6 mph 0.03 in Rain Heavy Rain
12:17 PM 57.2 °F 55.4 °F 94% 29.83 in 1.8 mi West 8.1 mph - 0.13 in Rain Heavy Rain
12:21 PM 57.2 °F 55.4 °F 94% 29.83 in 3.0 mi West 9.2 mph - 0.13 in Rain Light Rain
12:53 PM 57.0 °F 55.9 °F 96% 29.81 in 10.0 mi WSW 3.5 mph - 0.15 in Rain Light Rain
1:42 PM 57.2 °F 55.4 °F 94% 29.83 in 2.0 mi Calm Calm - 0.07 in Rain Rain
1:53 PM 57.9 °F 55.9 °F 93% 29.82 in 2.0 mi ESE 4.6 mph - 0.11 in Rain Heavy Rain
2:06 PM 57.2 °F 57.2 °F 100% 29.83 in 4.0 mi ESE 6.9 mph - 0.01 in Rain Light Rain
2:19 PM 57.2 °F 57.2 °F 100% 29.82 in 2.5 mi SE 4.6 mph - 0.04 in Rain Rain
2:30 PM 57.2 °F 57.2 °F 100% 29.82 in 4.0 mi SSE 5.8 mph - 0.06 in Rain Light Rain
2:53 PM 59.0 °F 57.9 °F 96% 29.81 in 5.0 mi SSE 6.9 mph - 0.07 in Rain Light Rain
3:53 PM 60.1 °F 59.0 °F 96% 29.78 in 10.0 mi Calm Calm - 0.00 in   Overcast
4:31 PM 60.8 °F 57.2 °F 88% 29.81 in 10.0 mi WSW 5.8 mph - 0.01 in Rain , Thunderstorm Light Thunderstorms and Rain
4:40 PM 59.0 °F 57.2 °F 94% 29.84 in 2.0 mi SW 9.2 mph 19.6 mph N/A Rain Heavy Rain
4:53 PM 57.9 °F 55.9 °F 93% 29.81 in 1.5 mi West 9.2 mph 17.3 mph 0.20 in Rain , Thunderstorm Heavy Rain
5:01 PM 57.2 °F 55.4 °F 94% 29.81 in 3.0 mi WNW 6.9 mph - 0.02 in Rain , Thunderstorm Rain
5:29 PM 57.2 °F 55.4 °F 94% 29.84 in 5.0 mi WSW 6.9 mph - 0.05 in Rain Rain
5:53 PM 57.9 °F 55.9 °F 93% 29.82 in 5.0 mi North 3.5 mph - 0.10 in Rain Rain
6:53 PM 57.0 °F 55.9 °F 96% 29.83 in 7.0 mi ENE 4.6 mph - 0.09 in Rain Light Rain
7:29 PM 57.2 °F 55.4 °F 94% 29.86 in 6.0 mi Calm Calm - 0.05 in Rain Light Rain
7:53 PM 57.0 °F 55.9 °F 96% 29.83 in 7.0 mi Calm Calm - 0.08 in Rain Light Rain
8:06 PM 57.2 °F 55.4 °F 94% 29.85 in 9.0 mi ESE 3.5 mph - 0.00 in Rain Light Rain
8:53 PM 57.0 °F 55.9 °F 96% 29.86 in 6.0 mi ESE 4.6 mph - 0.04 in Rain Light Rain
9:01 PM 57.2 °F 55.4 °F 94% 29.88 in 5.0 mi ESE 5.8 mph - 0.02 in Rain Rain
9:53 PM 57.0 °F 55.9 °F 96% 29.87 in 4.0 mi SE 5.8 mph - 0.14 in Rain Rain
10:23 PM 57.2 °F 55.4 °F 94% 29.89 in 5.0 mi ESE 5.8 mph - 0.07 in Rain Rain
10:53 PM 57.0 °F 57.0 °F 100% 29.88 in 4.0 mi East 4.6 mph - 0.14 in Rain Rain
11:32 PM 57.2 °F 55.4 °F 94% 29.90 in 7.0 mi Calm Calm - 0.11 in Rain Rain
11:53 PM 57.0 °F 57.0 °F 100% 29.90 in 5.0 mi SE 4.6 mph - 0.16 in Rain Rain